OBJECT C, 100751

Orbit data source: Space-Track

You're viewing an uncataloged RSO

Recently launched and/or uncataloged RSOs may have evolving metadata. Metadata may include the following, but is not limited to: Owner, Manufacturer, Bus, Motor, and Mission.

OBJECT C, 100751 is a satellite owned by Hangtian Hongtu (CN) in SSO that was launched on Sat, 19 Sep 2026 UTC launched from the Taiyaun Space Center, China (TSC). Unknown objects in Earth's orbit typically refer to objects detected orbiting the Earth but have not yet been identified or cataloged. These objects could be anything from previously untracked satellites, spent rocket stages, debris from satellite collisions, or even natural meteoroids temporarily captured by Earth's gravity.

Loading next visibility...
Identifier
100751, 2026-218C
Orbit
SSO
Country
Flag of CNCN / PRC
Related business
Manufacturer
Yinhe
Mission
Operational spacecraft
Bus & Motor
PIESAT, Unknown motor
Mass
270 kg wet, 270 kg dry
Launch date (UTC)
2026-09-19 (2 days ago)
Launch vehicle
Unknown
Launch site
Taiyaun Space Center, China (TSC)
Object type
Unknown
Shape & HBR
BOX + 2 PAN, 2.0 m
Radar Cross Section
RCS unknown

Expand to show TLE details & history
Last TLE update: 8 hours ago

TLE from 8 hours ago
0 OBJECT C
1 A0751U 26218C   26264.61071058  .00001668  00000-0  95387-4 0  9997
2 A0751  97.4909  90.5223 0011344 273.9374  86.0561 15.14010069   331
Epoch: 2026-09-21T14:39Z
TLE epoch observation values (Epoch: 2026-09-21T14:39:25.394Z)
Latitude
0.00003°
Longitude
-129.82157°
Altitude
526.535 km
Speed
7.6 km/s
True Right ascension
06h 02m 05s
True Declination
0° 00' 00"
Sunlit
Object was in daylight at epoch
Visualization orbit readout
Latitude
Unknown
Longitude
Unknown
Altitude
Unknown
Speed
Unknown
Apparent Right ascension
Unknown
Apparent Declination
Unknown
Sunlit
N/A
Visualization observer readout
Local Sidereal Time
15:35:59
Azimuth
Unknown
Elevation
Unknown
Doppler factor
Unknown
Orbital elements
Apogee altitude
528.789 km
Perigee altitude
513.137 km
Semi-major axis
6,899.1 km
Eccentricity
0.00113
Inclination
97.4909°
RAAN
90.5223°
Arg. of periapsis
273.9374°
True anomaly
86.1858°
Mean anomaly
86.0561°
Eccentric anomaly
86.12095°
Mean motion
3.78752 °/min
Orbital period
95.05 mins
BSTAR
0.000095387
Loading maneuver chart data...
Computing Atmospheric mass density...
Loading historical data...
Loading historical data...
Loading historical data...
Loading historical data...
Loading historical data...
Loading historical data...
Loading historical data...
Other satellites on launch #218 in the year 2026 (2026-09-19 UTC)

Documentation

Showing up to 5 results
|